Time,TemperatureF,DewpointF,PressureIn,WindDirection,WindDirectionDegrees,WindSpeedMPH,WindSpeedGustMPH,Humidity,HourlyPrecipIn,Conditions,Clouds,dailyrainin,SoftwareType,DateUTC
2013-06-28 00:02:00,58.6,32.4,32.10,SW,225,0.0,0.0,37,0.00,,,0.00,meteohub,2013-06-28 06:02:00,
2013-06-28 00:07:00,58.6,32.4,32.10,SW,225,0.0,0.0,37,0.00,,,0.00,meteohub,2013-06-28 06:07:00,
2013-06-28 00:12:00,58.8,34.5,32.10,SE,135,3.0,0.0,40,0.00,,,0.00,meteohub,2013-06-28 06:12:00,
2013-06-28 00:17:00,59.5,34.5,32.10,SE,135,3.0,3.0,39,0.00,,,0.00,meteohub,2013-06-28 06:17:00,
2013-06-28 00:22:00,60.1,35.1,32.10,South,180,2.0,4.0,39,0.00,,,0.00,meteohub,2013-06-28 06:22:00,
2013-06-28 00:27:00,60.4,34.7,32.10,SE,135,2.0,4.0,38,0.00,,,0.00,meteohub,2013-06-28 06:27:00,
2013-06-28 00:33:00,60.3,35.2,32.10,South,180,0.0,4.0,39,0.00,,,0.00,meteohub,2013-06-28 06:33:00,
2013-06-28 00:38:00,60.1,35.1,32.10,SSW,203,2.0,3.0,39,0.00,,,0.00,meteohub,2013-06-28 06:38:00,
2013-06-28 00:43:00,60.1,35.6,32.10,South,180,2.0,3.0,40,0.00,,,0.00,meteohub,2013-06-28 06:43:00,
2013-06-28 00:48:00,59.9,36.7,32.10,SSE,158,2.0,2.0,42,0.00,,,0.00,meteohub,2013-06-28 06:48:00,
2013-06-28 00:53:00,59.9,37.4,32.11,SE,135,3.0,3.0,43,0.00,,,0.00,meteohub,2013-06-28 06:53:00,
2013-06-28 00:59:00,59.7,37.8,32.11,South,180,8.0,8.0,44,0.00,,,0.00,meteohub,2013-06-28 06:59:00,
2013-06-28 01:04:00,59.7,37.8,32.11,East,90,4.0,8.0,44,0.00,,,0.00,meteohub,2013-06-28 07:04:00,
2013-06-28 01:09:00,59.7,38.3,32.10,SE,135,1.0,8.0,45,0.00,,,0.00,meteohub,2013-06-28 07:09:00,
2013-06-28 01:14:00,59.5,37.6,32.10,West,270,1.0,8.0,44,0.00,,,0.00,meteohub,2013-06-28 07:14:00,
2013-06-28 01:19:00,58.8,38.1,32.11,West,270,1.0,4.0,46,0.00,,,0.00,meteohub,2013-06-28 07:19:00,
2013-06-28 01:25:00,57.7,37.0,32.10,NW,315,1.0,2.0,46,0.00,,,0.00,meteohub,2013-06-28 07:25:00,
2013-06-28 01:30:00,57.2,37.8,32.10,East,90,0.0,2.0,48,0.00,,,0.00,meteohub,2013-06-28 07:30:00,
2013-06-28 01:35:00,56.8,38.5,32.10,East,90,2.0,2.0,50,0.00,,,0.00,meteohub,2013-06-28 07:35:00,
2013-06-28 01:40:00,57.0,39.0,32.10,SE,135,0.0,4.0,51,0.00,,,0.00,meteohub,2013-06-28 07:40:00,
2013-06-28 01:45:00,57.2,38.3,32.10,NE,45,0.0,4.0,49,0.00,,,0.00,meteohub,2013-06-28 07:45:00,
2013-06-28 01:51:00,56.5,37.6,32.10,West,270,1.0,4.0,49,0.00,,,0.00,meteohub,2013-06-28 07:51:00,
2013-06-28 01:56:00,56.3,37.9,32.11,South,180,1.0,2.0,50,0.00,,,0.00,meteohub,2013-06-28 07:56:00,
2013-06-28 02:01:00,55.9,37.6,32.10,West,270,0.0,2.0,50,0.00,,,0.00,meteohub,2013-06-28 08:01:00,
2013-06-28 02:06:00,55.9,37.6,32.10,West,270,0.0,2.0,50,0.00,,,0.00,meteohub,2013-06-28 08:06:00,
2013-06-28 02:11:00,54.5,37.2,32.11,West,270,0.0,1.0,52,0.00,,,0.00,meteohub,2013-06-28 08:11:00,
2013-06-28 02:16:00,54.1,36.9,32.10,South,180,0.0,0.0,52,0.00,,,0.00,meteohub,2013-06-28 08:16:00,
2013-06-28 02:22:00,53.6,36.3,32.10,South,180,0.0,0.0,52,0.00,,,0.00,meteohub,2013-06-28 08:22:00,
2013-06-28 02:27:00,52.9,36.7,32.10,NW,315,0.0,0.0,54,0.00,,,0.00,meteohub,2013-06-28 08:27:00,
2013-06-28 02:32:00,52.5,36.3,32.10,SW,225,0.0,0.0,54,0.00,,,0.00,meteohub,2013-06-28 08:32:00,
2013-06-28 02:37:00,52.2,36.5,32.10,West,270,0.0,0.0,55,0.00,,,0.00,meteohub,2013-06-28 08:37:00,
2013-06-28 02:42:00,51.8,36.1,32.10,South,180,0.0,0.0,55,0.00,,,0.00,meteohub,2013-06-28 08:42:00,
2013-06-28 02:47:00,51.4,36.7,32.10,SW,225,0.0,0.0,57,0.00,,,0.00,meteohub,2013-06-28 08:47:00,
2013-06-28 02:52:00,51.3,37.0,32.10,SW,225,0.0,0.0,58,0.00,,,0.00,meteohub,2013-06-28 08:52:00,
2013-06-28 02:57:00,51.1,36.9,32.10,South,180,0.0,0.0,58,0.00,,,0.00,meteohub,2013-06-28 08:57:00,
2013-06-28 03:02:00,50.9,36.7,32.10,North,0,0.0,0.0,58,0.00,,,0.00,meteohub,2013-06-28 09:02:00,
2013-06-28 03:07:00,50.7,36.5,32.10,South,180,0.0,0.0,58,0.00,,,0.00,meteohub,2013-06-28 09:07:00,
2013-06-28 03:12:00,50.5,36.7,32.10,South,180,0.0,0.0,59,0.00,,,0.00,meteohub,2013-06-28 09:12:00,
2013-06-28 03:17:00,50.4,36.5,32.10,South,180,0.0,0.0,59,0.00,,,0.00,meteohub,2013-06-28 09:17:00,
2013-06-28 03:22:00,50.2,36.9,32.10,South,180,0.0,0.0,60,0.00,,,0.00,meteohub,2013-06-28 09:22:00,
2013-06-28 03:27:00,50.0,36.7,32.10,South,180,0.0,0.0,60,0.00,,,0.00,meteohub,2013-06-28 09:27:00,
2013-06-28 03:32:00,49.8,36.9,32.10,South,180,0.0,0.0,61,0.00,,,0.00,meteohub,2013-06-28 09:32:00,
2013-06-28 03:37:00,49.5,36.5,32.10,South,180,0.0,0.0,61,0.00,,,0.00,meteohub,2013-06-28 09:37:00,
2013-06-28 03:42:00,49.1,36.3,32.10,South,180,0.0,0.0,61,0.00,,,0.00,meteohub,2013-06-28 09:42:00,
2013-06-28 03:47:00,48.7,36.3,32.10,West,270,0.0,0.0,62,0.00,,,0.00,meteohub,2013-06-28 09:47:00,
2013-06-28 03:52:00,48.7,36.3,32.10,West,270,0.0,2.0,62,0.00,,,0.00,meteohub,2013-06-28 09:52:00,
2013-06-28 03:57:00,48.6,36.5,32.10,South,180,0.0,2.0,63,0.00,,,0.00,meteohub,2013-06-28 09:57:00,
2013-06-28 04:02:00,48.6,36.9,32.10,South,180,0.0,2.0,64,0.00,,,0.00,meteohub,2013-06-28 10:02:00,
2013-06-28 04:07:00,48.6,36.9,32.10,South,180,0.0,2.0,64,0.00,,,0.00,meteohub,2013-06-28 10:07:00,
2013-06-28 04:12:00,48.6,36.9,32.10,West,270,0.0,0.0,64,0.00,,,0.00,meteohub,2013-06-28 10:12:00,
2013-06-28 04:17:00,48.4,36.7,32.10,West,270,0.0,0.0,64,0.00,,,0.00,meteohub,2013-06-28 10:17:00,
2013-06-28 04:22:00,48.4,36.7,32.10,South,180,0.0,0.0,64,0.00,,,0.00,meteohub,2013-06-28 10:22:00,
2013-06-28 04:27:00,48.4,36.7,32.10,West,270,0.0,0.0,64,0.00,,,0.00,meteohub,2013-06-28 10:27:00,
2013-06-28 04:32:00,48.2,36.7,32.10,West,270,0.0,0.0,64,0.00,,,0.00,meteohub,2013-06-28 10:32:00,
2013-06-28 04:37:00,48.2,36.7,32.10,SW,225,0.0,0.0,64,0.00,,,0.00,meteohub,2013-06-28 10:37:00,
2013-06-28 04:42:00,48.0,36.9,32.09,West,270,0.0,0.0,65,0.00,,,0.00,meteohub,2013-06-28 10:42:00,
2013-06-28 04:47:00,47.8,36.7,32.10,West,270,0.0,0.0,65,0.00,,,0.00,meteohub,2013-06-28 10:47:00,
2013-06-28 04:52:00,47.7,36.5,32.10,West,270,0.0,0.0,65,0.00,,,0.00,meteohub,2013-06-28 10:52:00,
2013-06-28 04:57:00,47.3,36.1,32.10,SE,135,0.0,0.0,65,0.00,,,0.00,meteohub,2013-06-28 10:57:00,
2013-06-28 05:02:00,46.9,35.8,32.10,SE,135,0.0,0.0,65,0.00,,,0.00,meteohub,2013-06-28 11:02:00,
2013-06-28 05:07:00,46.4,35.2,32.10,SE,135,0.0,0.0,65,0.00,,,0.00,meteohub,2013-06-28 11:07:00,
2013-06-28 05:12:00,45.9,34.7,32.10,SW,225,0.0,0.0,65,0.00,,,0.00,meteohub,2013-06-28 11:12:00,
2013-06-28 05:17:00,45.5,34.3,32.10,SW,225,0.0,0.0,65,0.00,,,0.00,meteohub,2013-06-28 11:17:00,
2013-06-28 05:22:00,45.3,34.7,32.10,SW,225,0.0,0.0,66,0.00,,,0.00,meteohub,2013-06-28 11:22:00,
2013-06-28 05:27:00,45.1,34.9,32.10,SW,225,0.0,0.0,67,0.00,,,0.00,meteohub,2013-06-28 11:27:00,
2013-06-28 05:32:00,45.0,34.7,32.10,SW,225,0.0,0.0,67,0.00,,,0.00,meteohub,2013-06-28 11:32:00,
2013-06-28 05:37:00,45.0,35.1,32.10,SW,225,0.0,0.0,68,0.00,,,0.00,meteohub,2013-06-28 11:37:00,
2013-06-28 05:42:00,45.1,35.2,32.10,SW,225,0.0,0.0,68,0.00,,,0.00,meteohub,2013-06-28 11:42:00,
2013-06-28 05:47:00,45.3,35.8,32.10,NW,315,0.0,0.0,69,0.00,,,0.00,meteohub,2013-06-28 11:47:00,
2013-06-28 05:52:00,45.3,35.8,32.10,NW,315,0.0,0.0,69,0.00,,,0.00,meteohub,2013-06-28 11:52:00,
2013-06-28 05:57:00,45.3,35.4,32.10,SW,225,0.0,0.0,68,0.00,,,0.00,meteohub,2013-06-28 11:57:00,
2013-06-28 06:02:00,45.3,35.4,32.10,SW,225,0.0,0.0,68,0.00,,,0.00,meteohub,2013-06-28 12:02:00,
2013-06-28 06:07:00,45.3,35.4,32.10,SW,225,0.0,0.0,68,0.00,,,0.00,meteohub,2013-06-28 12:07:00,
2013-06-28 06:12:00,44.8,35.2,32.10,SW,225,0.0,0.0,69,0.00,,,0.00,meteohub,2013-06-28 12:12:00,
2013-06-28 06:17:00,44.6,35.4,32.11,SW,225,0.0,0.0,70,0.00,,,0.00,meteohub,2013-06-28 12:17:00,
2013-06-28 06:22:00,44.8,36.0,32.11,West,270,2.0,0.0,71,0.00,,,0.00,meteohub,2013-06-28 12:22:00,
2013-06-28 06:27:00,45.1,36.3,32.11,SW,225,2.0,3.0,71,0.00,,,0.00,meteohub,2013-06-28 12:27:00,
2013-06-28 06:32:00,45.9,37.0,32.11,SW,225,2.0,3.0,71,0.00,,,0.00,meteohub,2013-06-28 12:32:00,
2013-06-28 06:37:00,46.6,37.8,32.10,SW,225,0.0,2.0,71,0.00,,,0.00,meteohub,2013-06-28 12:37:00,
2013-06-28 06:42:00,47.3,38.3,32.11,NE,45,0.0,2.0,71,0.00,,,0.00,meteohub,2013-06-28 12:42:00,
2013-06-28 06:47:00,48.7,39.0,32.11,NE,45,4.0,4.0,69,0.00,,,0.00,meteohub,2013-06-28 12:47:00,
2013-06-28 06:52:00,49.1,38.3,32.11,NE,45,4.0,4.0,66,0.00,,,0.00,meteohub,2013-06-28 12:52:00,
2013-06-28 06:57:00,48.2,37.0,32.11,East,90,2.0,4.0,65,0.00,,,0.00,meteohub,2013-06-28 12:57:00,
2013-06-28 07:02:00,47.8,37.4,32.11,SE,135,2.0,4.0,67,0.00,,,0.00,meteohub,2013-06-28 13:02:00,
2013-06-28 07:07:00,48.9,38.1,32.11,SE,135,0.0,4.0,66,0.00,,,0.00,meteohub,2013-06-28 13:07:00,
2013-06-28 07:12:00,50.4,39.0,32.11,SE,135,0.0,2.0,65,0.00,,,0.00,meteohub,2013-06-28 13:12:00,
2013-06-28 07:17:00,51.6,39.9,32.11,North,0,0.0,2.0,64,0.00,,,0.00,meteohub,2013-06-28 13:17:00,
2013-06-28 07:22:00,53.1,40.5,32.11,SE,135,0.0,0.0,62,0.00,,,0.00,meteohub,2013-06-28 13:22:00,
2013-06-28 07:27:00,54.7,41.0,32.11,WNW,293,0.0,2.0,60,0.00,,,0.00,meteohub,2013-06-28 13:27:00,
2013-06-28 07:32:00,55.9,41.4,32.11,NNW,338,0.0,2.0,58,0.00,,,0.00,meteohub,2013-06-28 13:32:00,
2013-06-28 07:37:00,57.4,41.9,32.10,North,0,2.0,2.0,56,0.00,,,0.00,meteohub,2013-06-28 13:37:00,
2013-06-28 07:42:00,58.5,42.4,32.11,North,0,2.0,2.0,55,0.00,,,0.00,meteohub,2013-06-28 13:42:00,
2013-06-28 07:47:00,59.5,42.4,32.11,West,270,4.0,4.0,53,0.00,,,0.00,meteohub,2013-06-28 13:47:00,
2013-06-28 07:52:00,60.3,42.6,32.10,West,270,3.0,4.0,52,0.00,,,0.00,meteohub,2013-06-28 13:52:00,
2013-06-28 07:57:00,60.8,42.1,32.11,WSW,248,3.0,4.0,50,0.00,,,0.00,meteohub,2013-06-28 13:57:00,
2013-06-28 08:02:00,61.3,42.1,32.11,NNE,23,2.0,4.0,49,0.00,,,0.00,meteohub,2013-06-28 14:02:00,
2013-06-28 08:07:00,61.3,42.1,32.11,NNE,23,2.0,4.0,49,0.00,,,0.00,meteohub,2013-06-28 14:07:00,
2013-06-28 08:12:00,63.0,41.9,32.11,North,0,2.0,4.0,46,0.00,,,0.00,meteohub,2013-06-28 14:12:00,
2013-06-28 08:17:00,63.5,41.2,32.10,North,0,2.0,3.0,44,0.00,,,0.00,meteohub,2013-06-28 14:17:00,
2013-06-28 08:22:00,64.0,41.7,32.10,NE,45,0.0,4.0,44,0.00,,,0.00,meteohub,2013-06-28 14:22:00,
2013-06-28 08:27:00,65.3,43.3,32.10,NE,45,3.0,4.0,45,0.00,,,0.00,meteohub,2013-06-28 14:27:00,
2013-06-28 08:33:00,65.7,43.7,32.10,NW,315,2.0,3.0,45,0.00,,,0.00,meteohub,2013-06-28 14:33:00,
2013-06-28 08:38:00,66.0,43.5,32.10,SE,135,3.0,3.0,44,0.00,,,0.00,meteohub,2013-06-28 14:38:00,
2013-06-28 08:43:00,66.0,44.1,32.10,East,90,5.0,5.0,45,0.00,,,0.00,meteohub,2013-06-28 14:43:00,
2013-06-28 08:48:00,66.7,44.1,32.10,North,0,4.0,5.0,44,0.00,,,0.00,meteohub,2013-06-28 14:48:00,
2013-06-28 08:53:00,67.1,43.2,32.10,East,90,2.0,5.0,42,0.00,,,0.00,meteohub,2013-06-28 14:53:00,
2013-06-28 08:58:00,67.8,43.9,32.10,NE,45,0.0,5.0,42,0.00,,,0.00,meteohub,2013-06-28 14:58:00,
2013-06-28 09:04:00,68.7,43.3,32.10,East,90,3.0,4.0,40,0.00,,,0.00,meteohub,2013-06-28 15:04:00,
2013-06-28 09:09:00,69.1,43.2,32.10,NW,315,3.0,4.0,39,0.00,,,0.00,meteohub,2013-06-28 15:09:00,
2013-06-28 09:14:00,69.6,42.8,32.10,NE,45,3.0,4.0,38,0.00,,,0.00,meteohub,2013-06-28 15:14:00,
2013-06-28 09:19:00,69.6,42.8,32.10,NW,315,3.0,5.0,38,0.00,,,0.00,meteohub,2013-06-28 15:19:00,
2013-06-28 09:24:00,70.0,42.4,32.10,SE,135,2.0,5.0,37,0.00,,,0.00,meteohub,2013-06-28 15:24:00,
2013-06-28 09:30:00,70.5,42.3,32.10,South,180,3.0,5.0,36,0.00,,,0.00,meteohub,2013-06-28 15:30:00,
2013-06-28 09:35:00,70.7,42.4,32.09,East,90,0.0,4.0,36,0.00,,,0.00,meteohub,2013-06-28 15:35:00,
2013-06-28 09:40:00,71.1,42.8,32.09,East,90,4.0,5.0,36,0.00,,,0.00,meteohub,2013-06-28 15:40:00,
2013-06-28 09:45:00,71.8,41.9,32.09,NE,45,5.0,5.0,34,0.00,,,0.00,meteohub,2013-06-28 15:45:00,
2013-06-28 09:50:00,72.3,41.5,32.09,North,0,4.0,6.0,33,0.00,,,0.00,meteohub,2013-06-28 15:50:00,
2013-06-28 09:56:00,73.0,40.6,32.09,West,270,4.0,6.0,31,0.00,,,0.00,meteohub,2013-06-28 15:56:00,
2013-06-28 10:01:00,73.8,39.6,32.09,West,270,3.0,6.0,29,0.00,,,0.00,meteohub,2013-06-28 16:01:00,
2013-06-28 10:06:00,73.8,39.6,32.09,West,270,3.0,5.0,29,0.00,,,0.00,meteohub,2013-06-28 16:06:00,
2013-06-28 10:11:00,75.0,38.8,32.09,SW,225,4.0,5.0,27,0.00,,,0.00,meteohub,2013-06-28 16:11:00,
2013-06-28 10:16:00,75.9,38.7,32.09,SW,225,3.0,4.0,26,0.00,,,0.00,meteohub,2013-06-28 16:16:00,
2013-06-28 10:22:00,76.6,37.2,32.09,West,270,4.0,4.0,24,0.00,,,0.00,meteohub,2013-06-28 16:22:00,
2013-06-28 10:27:00,77.4,35.6,32.08,West,270,4.0,6.0,22,0.00,,,0.00,meteohub,2013-06-28 16:27:00,
2013-06-28 10:32:00,78.1,32.5,32.09,West,270,3.0,6.0,19,0.00,,,0.00,meteohub,2013-06-28 16:32:00,
2013-06-28 10:37:00,78.6,28.8,32.08,NW,315,5.0,5.0,16,0.00,,,0.00,meteohub,2013-06-28 16:37:00,
2013-06-28 10:42:00,78.8,25.5,32.08,South,180,2.0,7.0,14,0.00,,,0.00,meteohub,2013-06-28 16:42:00,
2013-06-28 10:47:00,78.6,30.2,32.08,North,0,2.0,7.0,17,0.00,,,0.00,meteohub,2013-06-28 16:47:00,
2013-06-28 10:52:00,79.2,27.5,32.08,North,0,3.0,7.0,15,0.00,,,0.00,meteohub,2013-06-28 16:52:00,
2013-06-28 10:57:00,79.7,26.2,32.08,West,270,4.0,8.0,14,0.00,,,0.00,meteohub,2013-06-28 16:57:00,
2013-06-28 11:02:00,81.1,25.7,32.08,NW,315,4.0,8.0,13,0.00,,,0.00,meteohub,2013-06-28 17:02:00,
2013-06-28 11:07:00,81.3,25.7,32.08,NNE,23,5.0,8.0,13,0.00,,,0.00,meteohub,2013-06-28 17:07:00,
2013-06-28 11:12:00,81.9,26.2,32.08,ESE,113,4.0,8.0,13,0.00,,,0.00,meteohub,2013-06-28 17:12:00,
2013-06-28 11:17:00,81.7,26.1,32.08,SE,135,4.0,8.0,13,0.00,,,0.00,meteohub,2013-06-28 17:17:00,
2013-06-28 11:22:00,81.7,26.1,32.08,SE,135,5.0,8.0,13,0.00,,,0.00,meteohub,2013-06-28 17:22:00,
2013-06-28 11:27:00,81.3,25.7,32.08,North,0,4.0,8.0,13,0.00,,,0.00,meteohub,2013-06-28 17:27:00,
2013-06-28 11:32:00,81.5,25.9,32.08,West,270,5.0,8.0,13,0.00,,,0.00,meteohub,2013-06-28 17:32:00,
2013-06-28 11:37:00,81.5,25.9,32.08,West,270,5.0,8.0,13,0.00,,,0.00,meteohub,2013-06-28 17:37:00,
2013-06-28 11:42:00,81.3,25.7,32.08,NW,315,7.0,11.0,13,0.00,,,0.00,meteohub,2013-06-28 17:42:00,
2013-06-28 11:47:00,81.5,25.9,32.08,NE,45,6.0,11.0,13,0.00,,,0.00,meteohub,2013-06-28 17:47:00,
2013-06-28 11:52:00,81.5,25.9,32.07,NNE,23,10.0,11.0,13,0.00,,,0.00,meteohub,2013-06-28 17:52:00,
2013-06-28 11:57:00,82.0,26.4,32.07,East,90,6.0,10.0,13,0.00,,,0.00,meteohub,2013-06-28 17:57:00,
2013-06-28 12:02:00,82.2,26.4,32.07,NE,45,5.0,10.0,13,0.00,,,0.00,meteohub,2013-06-28 18:02:00,
2013-06-28 12:07:00,82.2,26.4,32.07,NE,45,5.0,10.0,13,0.00,,,0.00,meteohub,2013-06-28 18:07:00,
2013-06-28 12:12:00,82.0,26.4,32.07,NE,45,4.0,6.0,13,0.00,,,0.00,meteohub,2013-06-28 18:12:00,
2013-06-28 12:17:00,82.0,26.4,32.06,NE,45,8.0,8.0,13,0.00,,,0.00,meteohub,2013-06-28 18:17:00,
2013-06-28 12:22:00,81.9,26.2,32.06,ENE,68,5.0,8.0,13,0.00,,,0.00,meteohub,2013-06-28 18:22:00,
2013-06-28 12:27:00,82.4,31.6,32.06,East,90,7.0,8.0,16,0.00,,,0.00,meteohub,2013-06-28 18:27:00,
2013-06-28 12:32:00,82.4,31.6,32.06,East,90,4.0,8.0,16,0.00,,,0.00,meteohub,2013-06-28 18:32:00,
2013-06-28 12:37:00,83.3,32.4,32.06,North,0,2.0,9.0,16,0.00,,,0.00,meteohub,2013-06-28 18:37:00,
2013-06-28 12:42:00,84.0,33.1,32.06,North,0,4.0,9.0,16,0.00,,,0.00,meteohub,2013-06-28 18:42:00,
2013-06-28 12:47:00,84.6,30.2,32.06,North,0,4.0,8.0,14,0.00,,,0.00,meteohub,2013-06-28 18:47:00,
2013-06-28 12:52:00,84.6,30.2,32.05,WNW,293,5.0,8.0,14,0.00,,,0.00,meteohub,2013-06-28 18:52:00,
2013-06-28 12:57:00,84.0,31.5,32.05,NE,45,6.0,8.0,15,0.00,,,0.00,meteohub,2013-06-28 18:57:00,
2013-06-28 13:02:00,83.5,30.9,32.05,NE,45,6.0,8.0,15,0.00,,,0.00,meteohub,2013-06-28 19:02:00,
2013-06-28 13:07:00,84.0,31.5,32.05,South,180,6.0,8.0,15,0.00,,,0.00,meteohub,2013-06-28 19:07:00,
2013-06-28 13:12:00,84.6,30.2,32.05,NE,45,3.0,8.0,14,0.00,,,0.00,meteohub,2013-06-28 19:12:00,
2013-06-28 13:17:00,85.8,31.1,32.05,NNE,23,5.0,8.0,14,0.00,,,0.00,meteohub,2013-06-28 19:17:00,
2013-06-28 13:23:00,84.9,30.4,32.04,South,180,6.0,8.0,14,0.00,,,0.00,meteohub,2013-06-28 19:23:00,
2013-06-28 13:28:00,84.0,31.5,32.04,NW,315,7.0,9.0,15,0.00,,,0.00,meteohub,2013-06-28 19:28:00,
2013-06-28 13:33:00,84.4,30.0,32.04,West,270,5.0,9.0,14,0.00,,,0.00,meteohub,2013-06-28 19:33:00,
2013-06-28 13:38:00,83.5,30.9,32.04,North,0,5.0,9.0,15,0.00,,,0.00,meteohub,2013-06-28 19:38:00,
2013-06-28 13:43:00,82.0,24.4,32.04,NE,45,4.0,9.0,12,0.00,,,0.00,meteohub,2013-06-28 19:43:00,
2013-06-28 13:49:00,81.0,25.5,32.04,NNE,23,5.0,9.0,13,0.00,,,0.00,meteohub,2013-06-28 19:49:00,
2013-06-28 13:54:00,79.7,24.4,32.04,North,0,5.0,9.0,13,0.00,,,0.00,meteohub,2013-06-28 19:54:00,
2013-06-28 13:59:00,79.3,26.1,32.04,East,90,3.0,9.0,14,0.00,,,0.00,meteohub,2013-06-28 19:59:00,
2013-06-28 14:04:00,79.3,26.1,32.03,NW,315,2.0,5.0,14,0.00,,,0.00,meteohub,2013-06-28 20:04:00,
2013-06-28 14:09:00,81.1,25.7,32.04,NE,45,4.0,5.0,13,0.00,,,0.00,meteohub,2013-06-28 20:09:00,
2013-06-28 14:15:00,80.8,25.3,32.04,East,90,4.0,6.0,13,0.00,,,0.00,meteohub,2013-06-28 20:15:00,
2013-06-28 14:20:00,80.2,26.8,32.03,West,270,5.0,6.0,14,0.00,,,0.00,meteohub,2013-06-28 20:20:00,
2013-06-28 14:25:00,80.4,26.8,32.03,West,270,4.0,7.0,14,0.00,,,0.00,meteohub,2013-06-28 20:25:00,
2013-06-28 14:30:00,80.1,26.6,32.03,North,0,5.0,9.0,14,0.00,,,0.00,meteohub,2013-06-28 20:30:00,
2013-06-28 14:35:00,79.3,26.1,32.03,NE,45,5.0,9.0,14,0.00,,,0.00,meteohub,2013-06-28 20:35:00,
2013-06-28 14:41:00,78.6,27.1,32.03,NE,45,6.0,9.0,15,0.00,,,0.00,meteohub,2013-06-28 20:41:00,
2013-06-28 14:46:00,78.6,28.8,32.03,NE,45,6.0,9.0,16,0.00,,,0.00,meteohub,2013-06-28 20:46:00,
2013-06-28 14:51:00,78.4,27.0,32.03,NE,45,6.0,9.0,15,0.00,,,0.00,meteohub,2013-06-28 20:51:00,
2013-06-28 14:56:00,77.7,34.7,32.04,SE,135,8.0,9.0,21,0.00,,,0.00,meteohub,2013-06-28 20:56:00,
2013-06-28 15:02:00,75.6,34.0,32.03,North,0,2.0,12.0,22,0.00,,,0.00,meteohub,2013-06-28 21:02:00,
2013-06-28 15:07:00,74.7,36.5,32.03,East,90,3.0,12.0,25,0.00,,,0.00,meteohub,2013-06-28 21:07:00,
2013-06-28 15:12:00,74.8,36.7,32.03,NE,45,3.0,12.0,25,0.00,,,0.00,meteohub,2013-06-28 21:12:00,
2013-06-28 15:17:00,76.3,30.9,32.02,NE,45,4.0,7.0,19,0.00,,,0.00,meteohub,2013-06-28 21:17:00,
2013-06-28 15:22:00,78.4,31.5,32.02,NE,45,6.0,7.0,18,0.00,,,0.00,meteohub,2013-06-28 21:22:00,
2013-06-28 15:27:00,80.2,28.4,32.02,North,0,5.0,7.0,15,0.00,,,0.00,meteohub,2013-06-28 21:27:00,
2013-06-28 15:32:00,81.9,81.0,32.02,NE,45,10.0,10.0,97,0.00,,,0.00,meteohub,2013-06-28 21:32:00,
2013-06-28 15:37:00,82.4,33.3,32.02,NW,315,5.0,15.0,17,0.00,,,0.00,meteohub,2013-06-28 21:37:00,
2013-06-28 15:42:00,81.1,27.5,32.01,North,0,4.0,15.0,14,0.00,,,0.00,meteohub,2013-06-28 21:42:00,
2013-06-28 15:47:00,80.2,28.4,32.01,NE,45,5.0,15.0,15,0.00,,,0.00,meteohub,2013-06-28 21:47:00,
2013-06-28 15:52:00,81.3,25.7,32.01,East,90,5.0,8.0,13,0.00,,,0.00,meteohub,2013-06-28 21:52:00,
2013-06-28 15:58:00,82.6,31.8,32.01,East,90,8.0,9.0,16,0.00,,,0.00,meteohub,2013-06-28 21:58:00,
2013-06-28 16:03:00,82.9,32.2,32.01,North,0,5.0,9.0,16,0.00,,,0.00,meteohub,2013-06-28 22:03:00,
2013-06-28 16:08:00,83.7,32.7,32.01,NE,45,4.0,9.0,16,0.00,,,0.00,meteohub,2013-06-28 22:08:00,
2013-06-28 16:13:00,84.6,31.8,32.01,NE,45,5.0,8.0,15,0.00,,,0.00,meteohub,2013-06-28 22:13:00,
2013-06-28 16:18:00,85.1,30.6,32.01,SW,225,4.0,8.0,14,0.00,,,0.00,meteohub,2013-06-28 22:18:00,
2013-06-28 16:24:00,85.8,31.1,32.01,ESE,113,6.0,8.0,14,0.00,,,0.00,meteohub,2013-06-28 22:24:00,
2013-06-28 16:29:00,86.2,29.7,32.01,North,0,8.0,8.0,13,0.00,,,0.00,meteohub,2013-06-28 22:29:00,
2013-06-28 16:34:00,85.8,31.1,32.01,NE,45,7.0,8.0,14,0.00,,,0.00,meteohub,2013-06-28 22:34:00,
2013-06-28 16:39:00,84.6,30.2,32.01,NE,45,4.0,8.0,14,0.00,,,0.00,meteohub,2013-06-28 22:39:00,
2013-06-28 16:44:00,83.1,30.7,32.01,West,270,4.0,8.0,15,0.00,,,0.00,meteohub,2013-06-28 22:44:00,
2013-06-28 16:50:00,81.9,24.3,32.00,West,270,2.0,10.0,12,0.00,,,0.00,meteohub,2013-06-28 22:50:00,
2013-06-28 16:55:00,81.0,23.5,32.00,NW,315,6.0,10.0,12,0.00,,,0.00,meteohub,2013-06-28 22:55:00,
2013-06-28 17:00:00,79.3,26.1,32.00,NW,315,10.0,10.0,14,0.00,,,0.00,meteohub,2013-06-28 23:00:00,
2013-06-28 17:05:00,78.8,25.5,32.00,NW,315,6.0,12.0,14,0.00,,,0.00,meteohub,2013-06-28 23:05:00,
2013-06-28 17:10:00,78.3,28.4,32.00,North,0,8.0,12.0,16,0.00,,,0.00,meteohub,2013-06-28 23:10:00,
2013-06-28 17:16:00,77.7,27.9,32.01,West,270,5.0,11.0,16,0.00,,,0.00,meteohub,2013-06-28 23:16:00,
2013-06-28 17:21:00,77.7,27.9,32.01,West,270,6.0,9.0,16,0.00,,,0.00,meteohub,2013-06-28 23:21:00,
2013-06-28 17:26:00,77.5,29.3,32.01,NE,45,7.0,10.0,17,0.00,,,0.00,meteohub,2013-06-28 23:26:00,
2013-06-28 17:31:00,79.2,27.5,32.01,NW,315,8.0,10.0,15,0.00,,,0.00,meteohub,2013-06-28 23:31:00,
2013-06-28 17:36:00,80.1,28.2,32.00,NE,45,4.0,11.0,15,0.00,,,0.00,meteohub,2013-06-28 23:36:00,
2013-06-28 17:42:00,80.8,25.3,32.00,North,0,6.0,11.0,13,0.00,,,0.00,meteohub,2013-06-28 23:42:00,
2013-06-28 17:47:00,81.0,25.5,32.00,North,0,4.0,8.0,13,0.00,,,0.00,meteohub,2013-06-28 23:47:00,
2013-06-28 17:52:00,80.1,28.2,32.00,West,270,4.0,10.0,15,0.00,,,0.00,meteohub,2013-06-28 23:52:00,
2013-06-28 17:57:00,79.7,28.0,32.00,WNW,293,8.0,10.0,15,0.00,,,0.00,meteohub,2013-06-28 23:57:00,
2013-06-28 18:02:00,79.3,27.7,32.00,SW,225,5.0,10.0,15,0.00,,,0.00,meteohub,2013-06-29 00:02:00,
2013-06-28 18:07:00,79.3,27.7,32.01,SW,225,5.0,9.0,15,0.00,,,0.00,meteohub,2013-06-29 00:07:00,
2013-06-28 18:12:00,78.8,28.8,32.00,NNE,23,9.0,9.0,16,0.00,,,0.00,meteohub,2013-06-29 00:12:00,
2013-06-28 18:17:00,79.0,28.9,32.00,East,90,4.0,9.0,16,0.00,,,0.00,meteohub,2013-06-29 00:17:00,
2013-06-28 18:22:00,79.2,29.1,32.00,NE,45,3.0,9.0,16,0.00,,,0.00,meteohub,2013-06-29 00:22:00,
2013-06-28 18:27:00,79.7,29.5,32.00,NNW,338,9.0,9.0,16,0.00,,,0.00,meteohub,2013-06-29 00:27:00,
2013-06-28 18:32:00,80.1,29.8,32.00,East,90,8.0,9.0,16,0.00,,,0.00,meteohub,2013-06-29 00:32:00,
2013-06-28 18:37:00,79.7,28.0,32.00,NNW,338,6.0,9.0,15,0.00,,,0.00,meteohub,2013-06-29 00:37:00,
2013-06-28 18:43:00,79.2,27.5,32.01,North,0,8.0,9.0,15,0.00,,,0.00,meteohub,2013-06-29 00:43:00,
2013-06-28 18:48:00,79.0,27.3,32.01,East,90,8.0,8.0,15,0.00,,,0.00,meteohub,2013-06-29 00:48:00,
2013-06-28 18:53:00,78.8,27.3,32.01,NE,45,4.0,9.0,15,0.00,,,0.00,meteohub,2013-06-29 00:53:00,
2013-06-28 18:58:00,78.8,28.8,32.02,NE,45,4.0,9.0,16,0.00,,,0.00,meteohub,2013-06-29 00:58:00,
2013-06-28 19:03:00,79.3,29.3,32.02,North,0,2.0,9.0,16,0.00,,,0.00,meteohub,2013-06-29 01:03:00,
2013-06-28 19:09:00,79.3,29.3,32.02,NE,45,4.0,7.0,16,0.00,,,0.00,meteohub,2013-06-29 01:09:00,
2013-06-28 19:14:00,78.3,31.3,32.02,East,90,3.0,7.0,18,0.00,,,0.00,meteohub,2013-06-29 01:14:00,
2013-06-28 19:19:00,76.3,34.7,32.02,North,0,6.0,7.0,22,0.00,,,0.00,meteohub,2013-06-29 01:19:00,
2013-06-28 19:24:00,74.1,36.0,32.02,SE,135,5.0,7.0,25,0.00,,,0.00,meteohub,2013-06-29 01:24:00,
2013-06-28 19:29:00,72.5,32.5,32.03,SE,135,6.0,8.0,23,0.00,,,0.00,meteohub,2013-06-29 01:29:00,
2013-06-28 19:35:00,70.9,34.3,32.03,SE,135,13.0,13.0,26,0.00,,,0.00,meteohub,2013-06-29 01:35:00,
2013-06-28 19:40:00,70.0,34.5,32.03,East,90,14.0,14.0,27,0.00,,,0.00,meteohub,2013-06-29 01:40:00,
2013-06-28 19:45:00,69.1,38.8,32.04,SSE,158,13.0,15.0,33,0.00,,,0.00,meteohub,2013-06-29 01:45:00,
2013-06-28 19:50:00,68.5,38.3,32.03,SW,225,13.0,18.0,33,0.00,,,0.00,meteohub,2013-06-29 01:50:00,
2013-06-28 19:56:00,68.2,38.7,32.04,SE,135,11.0,18.0,34,0.00,,,0.00,meteohub,2013-06-29 01:56:00,
2013-06-28 20:01:00,68.0,39.4,32.04,SE,135,12.0,16.0,35,0.00,,,0.00,meteohub,2013-06-29 02:01:00,
2013-06-28 20:06:00,67.5,39.6,32.04,East,90,11.0,16.0,36,0.00,,,0.00,meteohub,2013-06-29 02:06:00,
2013-06-28 20:11:00,67.1,39.2,32.04,SE,135,10.0,13.0,36,0.00,,,0.00,meteohub,2013-06-29 02:11:00,
2013-06-28 20:16:00,66.7,39.6,32.04,SE,135,9.0,13.0,37,0.00,,,0.00,meteohub,2013-06-29 02:16:00,
2013-06-28 20:21:00,66.4,39.4,32.04,SE,135,11.0,14.0,37,0.00,,,0.00,meteohub,2013-06-29 02:21:00,
2013-06-28 20:27:00,66.0,40.3,32.04,East,90,7.0,14.0,39,0.00,,,0.00,meteohub,2013-06-29 02:27:00,
2013-06-28 20:32:00,65.7,39.4,32.04,East,90,8.0,11.0,38,0.00,,,0.00,meteohub,2013-06-29 02:32:00,
2013-06-28 20:37:00,65.5,39.2,32.04,SE,135,10.0,11.0,38,0.00,,,0.00,meteohub,2013-06-29 02:37:00,
2013-06-28 20:42:00,65.1,39.6,32.04,ENE,68,13.0,16.0,39,0.00,,,0.00,meteohub,2013-06-29 02:42:00,
2013-06-28 20:47:00,64.6,39.7,32.04,East,90,6.0,16.0,40,0.00,,,0.00,meteohub,2013-06-29 02:47:00,
2013-06-28 20:53:00,64.4,39.6,32.04,South,180,5.0,16.0,40,0.00,,,0.00,meteohub,2013-06-29 02:53:00,
2013-06-28 20:58:00,63.9,39.7,32.04,East,90,9.0,13.0,41,0.00,,,0.00,meteohub,2013-06-29 02:58:00,
2013-06-28 21:03:00,63.7,39.6,32.04,SE,135,9.0,9.0,41,0.00,,,0.00,meteohub,2013-06-29 03:03:00,
2013-06-28 21:08:00,63.5,39.4,32.04,SE,135,4.0,11.0,41,0.00,,,0.00,meteohub,2013-06-29 03:08:00,
2013-06-28 21:13:00,63.5,39.4,32.04,West,270,4.0,11.0,41,0.00,,,0.00,meteohub,2013-06-29 03:13:00,
2013-06-28 21:19:00,63.3,39.9,32.05,East,90,7.0,11.0,42,0.00,,,0.00,meteohub,2013-06-29 03:19:00,
2013-06-28 21:24:00,63.0,40.1,32.04,SE,135,8.0,8.0,43,0.00,,,0.00,meteohub,2013-06-29 03:24:00,
2013-06-28 21:29:00,62.6,39.7,32.04,South,180,6.0,8.0,43,0.00,,,0.00,meteohub,2013-06-29 03:29:00,
2013-06-28 21:34:00,62.6,39.2,32.04,NE,45,7.0,11.0,42,0.00,,,0.00,meteohub,2013-06-29 03:34:00,
2013-06-28 21:39:00,62.4,40.3,32.04,NE,45,6.0,11.0,44,0.00,,,0.00,meteohub,2013-06-29 03:39:00,
2013-06-28 21:45:00,62.2,40.1,32.04,SE,135,3.0,11.0,44,0.00,,,0.00,meteohub,2013-06-29 03:45:00,
2013-06-28 21:50:00,61.9,40.3,32.04,SE,135,8.0,11.0,45,0.00,,,0.00,meteohub,2013-06-29 03:50:00,
2013-06-28 21:55:00,61.5,40.5,32.04,South,180,6.0,11.0,46,0.00,,,0.00,meteohub,2013-06-29 03:55:00,
2013-06-28 22:00:00,61.2,40.8,32.04,SE,135,6.0,11.0,47,0.00,,,0.00,meteohub,2013-06-29 04:00:00,
2013-06-28 22:01:00,61.2,40.8,32.04,SE,135,6.0,11.0,47,0.00,,,0.00,meteohub,2013-06-29 04:01:00,
2013-06-28 22:02:00,61.2,40.8,32.04,SE,135,8.0,11.0,47,0.00,,,0.00,meteohub,2013-06-29 04:02:00,
2013-06-28 22:03:00,61.2,41.4,32.04,SE,135,11.0,11.0,48,0.00,,,0.00,meteohub,2013-06-29 04:03:00,
2013-06-28 22:07:00,61.0,41.2,32.04,SE,135,13.0,15.0,48,0.00,,,0.00,meteohub,2013-06-29 04:07:00,
2013-06-28 22:12:00,60.8,41.0,32.04,East,90,12.0,15.0,48,0.00,,,0.00,meteohub,2013-06-29 04:12:00,
2013-06-28 22:17:00,60.6,41.4,32.04,SE,135,11.0,15.0,49,0.00,,,0.00,meteohub,2013-06-29 04:17:00,
2013-06-28 22:22:00,60.6,41.4,32.05,SE,135,11.0,15.0,49,0.00,,,0.00,meteohub,2013-06-29 04:22:00,
2013-06-28 22:27:00,60.1,41.9,32.05,East,90,10.0,12.0,51,0.00,,,0.00,meteohub,2013-06-29 04:27:00,
2013-06-28 22:32:00,59.7,42.6,32.05,SE,135,8.0,17.0,53,0.00,,,0.00,meteohub,2013-06-29 04:32:00,
2013-06-28 22:37:00,59.5,42.4,32.05,West,270,10.0,17.0,53,0.00,,,0.00,meteohub,2013-06-29 04:37:00,
2013-06-28 22:42:00,59.4,42.3,32.05,NE,45,9.0,17.0,53,0.00,,,0.00,meteohub,2013-06-29 04:42:00,
2013-06-28 22:47:00,59.0,42.4,32.05,SE,135,10.0,16.0,54,0.00,,,0.00,meteohub,2013-06-29 04:47:00,
2013-06-28 22:52:00,59.0,42.4,32.05,South,180,8.0,15.0,54,0.00,,,0.00,meteohub,2013-06-29 04:52:00,
2013-06-28 22:57:00,58.8,42.6,32.06,South,180,8.0,15.0,55,0.00,,,0.00,meteohub,2013-06-29 04:57:00,
2013-06-28 23:02:00,58.6,42.4,32.05,SE,135,9.0,15.0,55,0.00,,,0.00,meteohub,2013-06-29 05:02:00,
2013-06-28 23:07:00,58.5,42.4,32.06,South,180,8.0,11.0,55,0.00,,,0.00,meteohub,2013-06-29 05:07:00,
2013-06-28 23:12:00,58.3,42.6,32.05,SE,135,7.0,12.0,56,0.00,,,0.00,meteohub,2013-06-29 05:12:00,
2013-06-28 23:17:00,58.1,42.4,32.05,SE,135,8.0,12.0,56,0.00,,,0.00,meteohub,2013-06-29 05:17:00,
2013-06-28 23:22:00,57.9,42.3,32.06,SE,135,8.0,11.0,56,0.00,,,0.00,meteohub,2013-06-29 05:22:00,
2013-06-28 23:27:00,57.7,42.1,32.06,SE,135,8.0,11.0,56,0.00,,,0.00,meteohub,2013-06-29 05:27:00,
2013-06-28 23:32:00,57.7,42.1,32.06,East,90,8.0,11.0,56,0.00,,,0.00,meteohub,2013-06-29 05:32:00,
2013-06-28 23:37:00,57.7,42.1,32.05,SE,135,10.0,10.0,56,0.00,,,0.00,meteohub,2013-06-29 05:37:00,
2013-06-28 23:42:00,57.7,42.1,32.05,South,180,5.0,12.0,56,0.00,,,0.00,meteohub,2013-06-29 05:42:00,
2013-06-28 23:47:00,57.6,42.4,32.05,SE,135,9.0,12.0,57,0.00,,,0.00,meteohub,2013-06-29 05:47:00,
2013-06-28 23:52:00,57.4,42.3,32.05,SE,135,9.0,12.0,57,0.00,,,0.00,meteohub,2013-06-29 05:52:00,
2013-06-28 23:57:00,57.2,42.1,32.05,SSW,203,5.0,9.0,57,0.00,,,0.00,meteohub,2013-06-29 05:57:00,